Strait of Georgia - north of Nanaimo: Past 24 Hour Conditions

 

Saturna Island

07:00 PM PDT 01 September 2014
This table is a summary of hourly weather conditions for the past 24 hours.
Date / Time
(PDT)
Wind(knots) Conditions Visibility(km) Pressure(kPa) Air tempC) Relative humidity(%) Dew pointC)
01 September 2014
19:00 WSW 7 N/A N/A 101.6 18 64 11
18:00 W 5 N/A N/A 101.6 19 57 10
17:00 W 4 N/A N/A 101.7 19 57 10
16:00 W 4 N/A N/A 101.7 20 56 11
15:00 SSW 3 N/A N/A 101.7 19 59 11
14:00 SSE 4 N/A N/A 101.7 19 61 11
13:00 SSE 6 N/A N/A 101.8 19 61 11
12:00 SSW 8 N/A N/A 101.8 20 58 11
11:00 SSW 2 N/A N/A 101.8 17 66 11
10:00 SW 2 N/A N/A 101.8 17 68 11
9:00 WSW 10 N/A N/A 101.8 15 78 11
8:00 WSW 7 N/A N/A 101.8 14 83 11
7:00 WSW 6 N/A N/A 101.8 13 86 11
6:00 WSW 4 N/A N/A 101.7 13 85 10
5:00 W 5 N/A N/A 101.7 13 82 10
4:00 WSW 7 N/A N/A 101.7 14 78 10
3:00 WSW 8 N/A N/A 101.7 14 75 10
2:00 SW 10 N/A N/A 101.7 14 74 10
1:00 W 5 N/A N/A 101.7 14 75 10
0:00 WSW 5 N/A N/A 101.7 14 76 10
31 August 2014
23:00 WSW 11 N/A N/A 101.7 14 76 10
22:00 WSW 9 N/A N/A 101.7 15 72 10
21:00 WSW 11 N/A N/A 101.6 15 70 10
20:00 W 6 N/A N/A 101.6 16 70 10
19:00 WSW 11 N/A N/A 101.6 16 69 10
 
Map of Pacific - Georgia Basin marine weather areas Tsawwassen Ferry Terminal Sentry Shoal - 46131 Halibut Bank - 46146 La Perouse Bank - 46206 Discovery Island Esquimalt Harbour Kelp Reefs Malahat Race Rocks Lightstation Saturna Island Sheringham Point University of Victoria Victoria Gonzales Victoria Int'l Airport Ballenas Islands Campbell River Airport Comox Airport Entrance Island Fanny Island Nanaimo Airport Sisters Islets Estevan Point Tofino Airport Grief Point Powell River Airport Sechelt Point Atkinson Sand Heads Lightstation Vancouver Harbour Vancouver Int'l Airport West Vancouver Port Alberni Howe Sound - Pam Rocks Squamish Airport